Weather in Lozenets

Bulgaria     42°12′38″N   27°48′07″E
temp.,
°C
wind,
m/s
gust,
m/s
humid.,
%
clouds,
%
prec.,
mm/h
press.,
hPa
HPBL,
m
7 march, sun
sun723:00+4ne3676100 0.3 1030717
02:00+4ne477499 0.4 1030513
05:00+4ne4669100 0.1 1030580
08:00+4ne456697 0.2 10301040
11:00+5ne444865 0.0 10291279
14:00+6ene324532 0.0 10271072
17:00+5ese33500 0.0 1025579
20:00+2sse36640 0.0 1024205
8 march, mon
mon823:00+1s35710 0.0 1023155
02:00+1ssw23720 0.0 102187
05:00+1sw35720 0.0 1020130
08:00+3sw25670 0.0 1019256
11:00+9w24530 0.0 1018833
14:00+11wnw14490 0.0 10171270
17:00+10w03580 0.0 1015783
20:00+6sw34750 0.0 101689
9 march, tue
tue923:00+6sw49790 0.0 1017172
02:00+5wsw35830 0.0 1017109
05:00+4wnw35780 0.0 1018126
08:00+4nnw35670 0.0 1020352
11:00+5nne567985 0.0 1021628
14:00+5ne457692 0.0 1021700
17:00+5ene457798 0.0 1021703
20:00+6e357999 0.0 1022655
10 march, wed
wed1023:00+6e4781100 0.1 1021605
02:00+5ese588499 0.1 1020460
05:00+6ese5884100 0.1 1018680
08:00+6e5884100 0.2 1017755
11:00+6e6782100 0.2 1016773
14:00+6ene7984100 0.8 1016728
17:00+4ene6796100 1.9 1015505
20:00+3ne3596100 4.6 1017369
11 march, thu
thu1123:00+3nnw5796100 1.6 1019430
02:00+3nnw6996100 2.3 1020578
05:00+3n61081100 0.3 1020759
08:00+3n697599 0.3 1023805
11:00+5n676745 0.0 10251053
14:00+6nne455834 0.0 10261023
17:00+5ene33610 0.0 1026635
20:00+3se22710 0.0 1027130